Buffalo, MN

9:53 PM CDT on September 20, 2017 (GMT -0500)
Buffalo

Weather History for KCFE - August, 2013

Change the Weather History Date:

Friday, August 23, 2013

  Actual Average (KMIC) Record (KMIC)
Temperature  
Mean Temperature 69 °F -  
Max Temperature 84 °F 77 °F 88 °F (2003)
Min Temperature 54 °F 57 °F 46 °F (2005)
Cooling Degree Days 4    
Growing Degree Days 19 (Base 50)    
Moisture  
Dew Point 57 °F    
Average Humidity 62    
Maximum Humidity 80    
Minimum Humidity 41    
Precipitation  
Precipitation 0.00 in - - ()
Sea Level Pressure  
Sea Level Pressure 30.11 in    
Wind  
Wind Speed 3 mph (ESE)    
Max Wind Speed 12 mph    
Max Gust Speed 17 mph    
Visibility 10 miles    
Events      
Averages and records for this station are not official NWS values.
T = Trace of Precipitation, MM = Missing Value Source: NWS Daily Summary

Daily Weather History Graph

Daily Weather History Graph

Search for Another Location

Airport or City:

Trip Planner

Search our weather history database for the weather conditions in past years. The results will help you decide how hot, cold, wet, or windy it might be!

Date:

Astronomy

Aug. 23, 2013 Rise Set
Actual Time 6:26 AM CDT 8:08 PM CDT
Civil Twilight 5:55 AM CDT 8:39 PM CDT
Nautical Twilight 5:17 AM CDT 9:17 PM CDT
Astronomical Twilight 4:36 AM CDT 9:57 PM CDT
Moon 9:15 PM CDT (8/23) 9:33 AM CDT (8/23)
Length of Visible Light 14h 43m
Length of Day
13h 41m
Waning Gibbous, 91% of the Moon is Illuminated
Aug 23
Waning Gibbous
Aug 28
Last Quarter
Sep 5
New
Sep 12
First Quarter
Sep 19
Full

Hourly Weather History & Observations

Time (CDT) Temp. Heat Index Dew Point Humidity Pressure Visibility Wind Dir Wind Speed Gust Speed Precip Events Conditions
12:14 AM 62.8 °F - 51.3 °F 66% 30.15 in 10.0 mi Calm Calm - N/A   Clear
12:34 AM 61.3 °F - 51.3 °F 69% 30.15 in 10.0 mi NNE 3.5 mph - N/A   Clear
12:54 AM 61.3 °F - 51.3 °F 69% 30.15 in 10.0 mi Calm Calm - N/A   Clear
1:14 AM 60.3 °F - 50.7 °F 71% 30.15 in 10.0 mi Calm Calm - N/A   Clear
1:34 AM 62.1 °F - 50.5 °F 66% 30.14 in 10.0 mi NNE 4.6 mph - N/A   Clear
1:54 AM 59.7 °F - 50.2 °F 71% 30.14 in 10.0 mi Calm Calm - N/A   Clear
2:14 AM 58.6 °F - 50.0 °F 73% 30.14 in 10.0 mi Calm Calm - N/A   Clear
2:34 AM 58.8 °F - 50.2 °F 73% 30.14 in 10.0 mi Calm Calm - N/A   Clear
2:54 AM 59.4 °F - 50.0 °F 71% 30.14 in 10.0 mi Calm Calm - N/A   Clear
3:14 AM 60.6 °F - 49.8 °F 68% 30.14 in 10.0 mi Calm Calm - N/A   Clear
3:34 AM 61.2 °F - 49.6 °F 66% 30.14 in 10.0 mi Calm Calm - N/A   Clear
3:54 AM 60.6 °F - 49.3 °F 66% 30.14 in 10.0 mi Calm Calm - N/A   Clear
4:15 AM 59.4 °F - 49.1 °F 69% 30.14 in 10.0 mi Calm Calm - N/A   Clear
4:34 AM 59.4 °F - 49.3 °F 69% 30.14 in 10.0 mi ENE 3.5 mph - N/A   Clear
4:54 AM 58.3 °F - 49.3 °F 72% 30.15 in 10.0 mi Calm Calm - N/A   Clear
5:14 AM 58.1 °F - 49.1 °F 72% 30.14 in 10.0 mi Calm Calm - N/A   Clear
5:34 AM 58.1 °F - 49.1 °F 72% 30.14 in 10.0 mi Calm Calm - N/A   Clear
5:54 AM 58.3 °F - 49.1 °F 71% 30.15 in 10.0 mi Calm Calm - N/A   Clear
6:14 AM 58.5 °F - 49.1 °F 71% 30.16 in 10.0 mi Calm Calm - N/A   Clear
6:34 AM 56.8 °F - 49.1 °F 75% 30.16 in 10.0 mi Calm Calm - N/A   Clear
6:54 AM 54.9 °F - 48.9 °F 80% 30.16 in 10.0 mi Calm Calm - N/A   Clear
7:14 AM 56.1 °F - 49.8 °F 79% 30.16 in 10.0 mi NE 3.5 mph - N/A   Clear
7:34 AM 58.8 °F - 50.9 °F 75% 30.16 in 10.0 mi Calm Calm - N/A   Clear
7:54 AM 61.3 °F - 51.8 °F 71% 30.16 in 10.0 mi ENE 3.5 mph - N/A   Clear
8:14 AM 63.5 °F - 52.2 °F 67% 30.16 in 10.0 mi Calm Calm - N/A   Clear
8:34 AM 65.5 °F - 51.6 °F 61% 30.16 in 10.0 mi East 4.6 mph - N/A   Clear
8:54 AM 66.6 °F - 51.1 °F 57% 30.16 in 10.0 mi East 3.5 mph - N/A   Clear
9:14 AM 68.2 °F - 52.5 °F 57% 30.16 in 10.0 mi East 3.5 mph - N/A   Clear
9:34 AM 70.0 °F - 53.6 °F 56% 30.16 in 10.0 mi East 3.5 mph - N/A   Clear
9:54 AM 71.2 °F - 53.8 °F 54% 30.15 in 10.0 mi East 5.8 mph - N/A   Clear
10:14 AM 73.4 °F - 55.0 °F 52% 30.14 in 10.0 mi ENE 3.5 mph - N/A   Clear
10:34 AM 74.3 °F - 56.3 °F 53% 30.15 in 10.0 mi East 3.5 mph - N/A   Clear
10:54 AM 76.1 °F - 57.4 °F 52% 30.14 in 10.0 mi East 3.5 mph - N/A   Clear
11:14 AM 76.1 °F - 57.6 °F 53% 30.14 in 10.0 mi ESE 5.8 mph - N/A   Clear
11:34 AM 78.1 °F - 57.7 °F 49% 30.13 in 10.0 mi ESE 5.8 mph - N/A   Clear
11:53 AM 79.3 °F - 59.0 °F 50% 30.13 in 10.0 mi ESE 6.9 mph - N/A   Clear
12:14 PM 79.9 °F - 58.8 °F 48% 30.13 in 10.0 mi SE 8.1 mph - N/A   Clear
12:34 PM 80.8 °F 81.2 °F 58.8 °F 47% 30.12 in 10.0 mi SE 6.9 mph - N/A   Clear
12:53 PM 81.5 °F 81.5 °F 57.4 °F 44% 30.12 in 10.0 mi SE 8.1 mph - N/A   Clear
1:14 PM 81.5 °F 81.5 °F 57.9 °F 44% 30.12 in 10.0 mi ESE 6.9 mph - N/A   Clear
1:34 PM 81.5 °F 81.6 °F 58.5 °F 45% 30.10 in 10.0 mi ESE 6.9 mph - N/A   Clear
1:53 PM 81.5 °F 81.6 °F 58.3 °F 45% 30.10 in 10.0 mi ESE 9.2 mph - N/A   Clear
2:14 PM 83.3 °F 83.1 °F 58.8 °F 43% 30.09 in 10.0 mi SSE 8.1 mph - N/A   Clear
2:34 PM 83.7 °F 83.8 °F 60.1 °F 45% 30.09 in 10.0 mi South 9.2 mph - N/A   Clear
2:54 PM 83.7 °F 83.1 °F 57.9 °F 41% 30.09 in 10.0 mi SSE 9.2 mph - N/A   Clear
3:14 PM 84.2 °F 84.2 °F 60.1 °F 44% 30.08 in 10.0 mi SE 11.5 mph 16.1 mph N/A   Clear
3:34 PM 83.8 °F 84.3 °F 61.3 °F 47% 30.07 in 10.0 mi South 9.2 mph - N/A   Clear
3:54 PM 84.2 °F 84.6 °F 61.2 °F 46% 30.07 in 10.0 mi SE 9.2 mph - N/A   Scattered Clouds
4:14 PM 83.5 °F 83.7 °F 61.0 °F 46% 30.06 in 10.0 mi SE 10.4 mph 17.3 mph N/A   Scattered Clouds
4:34 PM 84.2 °F 84.8 °F 62.1 °F 47% 30.06 in 10.0 mi SE 10.4 mph - N/A   Scattered Clouds
4:54 PM 83.7 °F 84.5 °F 62.4 °F 49% 30.06 in 10.0 mi SE 6.9 mph - N/A   Mostly Cloudy
5:14 PM 82.4 °F 83.2 °F 61.9 °F 50% 30.06 in 10.0 mi SE 9.2 mph - N/A   Scattered Clouds
5:34 PM 82.4 °F 83.0 °F 61.3 °F 49% 30.06 in 10.0 mi SSE 9.2 mph - N/A   Clear
5:54 PM 81.5 °F 82.4 °F 61.7 °F 51% 30.06 in 10.0 mi SE 9.2 mph 16.1 mph N/A   Clear
6:14 PM 81.9 °F 82.9 °F 62.8 °F 52% 30.06 in 10.0 mi SSE 9.2 mph - N/A   Clear
6:34 PM 81.5 °F 82.8 °F 63.5 °F 54% 30.06 in 10.0 mi SSE 10.4 mph 16.1 mph N/A   Clear
6:54 PM 79.9 °F - 64.0 °F 58% 30.05 in 10.0 mi SE 8.1 mph - N/A   Clear
7:14 PM 79.3 °F - 64.8 °F 61% 30.05 in 10.0 mi SE 6.9 mph - N/A   Clear
7:34 PM 77.9 °F - 64.4 °F 63% 30.04 in 10.0 mi SE 5.8 mph - N/A   Clear
7:54 PM 77.0 °F - 64.4 °F 65% 30.04 in 10.0 mi SE 6.9 mph - N/A   Clear
8:14 PM 76.5 °F - 64.0 °F 65% 30.04 in 10.0 mi SSE 5.8 mph - N/A   Clear
8:34 PM 76.1 °F - 64.6 °F 67% 30.05 in 10.0 mi SE 4.6 mph - N/A   Clear
8:54 PM 74.7 °F - 64.2 °F 70% 30.05 in 10.0 mi SE 4.6 mph - N/A   Clear
9:14 PM 74.3 °F - 64.4 °F 71% 30.06 in 10.0 mi SE 3.5 mph - N/A   Clear
9:34 PM 73.0 °F - 64.4 °F 74% 30.06 in 10.0 mi ESE 4.6 mph - N/A   Clear
9:54 PM 72.5 °F - 64.6 °F 76% 30.06 in 10.0 mi Calm Calm - N/A   Clear
10:14 PM 72.5 °F - 64.8 °F 77% 30.06 in 10.0 mi SSE 3.5 mph - N/A   Clear
10:33 PM 72.5 °F - 64.6 °F 76% 30.06 in 10.0 mi SE 4.6 mph - N/A   Clear
10:54 PM 72.5 °F - 64.8 °F 77% 30.05 in 10.0 mi SE 5.8 mph - N/A   Clear
11:14 PM 72.5 °F - 65.3 °F 78% 30.05 in 10.0 mi SE 4.6 mph - N/A   Clear
11:33 PM 71.6 °F - 64.8 °F 79% 30.05 in 10.0 mi ESE 3.5 mph - N/A   Clear
11:54 PM 71.6 °F - 64.8 °F 79% 30.05 in 10.0 mi SE 4.6 mph - N/A   Clear